This is the latest recevied weather packets stored in our database for station/object BRIVER. If no packets are shown the sender has not sent any weather packets the latest 10 day(s).
| Time | Temp. | Humidity | Pressure | Rain* | Wind** | Luminosity | Snow |
|---|---|---|---|---|---|---|---|
| 1777410343 | 8.33° C | 79% | 1022 hPa | 0 mm | - | - | - |
| 1777410043 | 8.89° C | 76% | 1022 hPa | 0 mm | - | - | - |
| 1777409924 | 8.89° C | 78% | 1022 hPa | 0 mm | - | - | - |
| 1777409743 | 8.89° C | 74% | 1022 hPa | 0 mm | - | - | - |
| 1777409443 | 8.89° C | 78% | 1022 hPa | 0 mm | - | - | - |
| 1777409384 | 8.89° C | 76% | 1022 hPa | 0 mm | - | - | - |
| 1777409143 | 8.33° C | 77% | 1022 hPa | 0 mm | - | - | - |
| 1777408843 | 8.33° C | 81% | 1022 hPa | 0 mm | - | - | - |
| 1777408543 | 7.78° C | 81% | 1022.2 hPa | 0 mm | - | - | - |
| 1777408304 | 7.22° C | 80% | 1022.2 hPa | 0 mm | - | - | - |
| 1777408243 | 7.22° C | 81% | 1022.2 hPa | 0 mm | - | - | - |
| 1777407943 | 7.22° C | 79% | 1022.2 hPa | 0 mm | - | - | - |
| 1777407764 | 7.78° C | 78% | 1022.2 hPa | 0 mm | - | - | - |
| 1777407643 | 7.78° C | 83% | 1022.3 hPa | 0 mm | - | - | - |
| 1777407343 | 6.67° C | 82% | 1022.2 hPa | 0 mm | - | - | - |
| 1777407224 | 7.22° C | 79% | 1022.2 hPa | 0 mm | - | - | - |
| 1777407043 | 7.22° C | 82% | 1022.2 hPa | 0 mm | - | - | - |
| 1777406743 | 7.22° C | 82% | 1022.1 hPa | 0 mm | - | - | - |
| 1777406685 | 6.67° C | 82% | 1022.2 hPa | 0 mm | - | - | - |
| 1777406443 | 6.67° C | 83% | 1022.2 hPa | 0 mm | - | - | - |
| 1777406143 | 6.67° C | 82% | 1022.1 hPa | 0 mm | - | - | - |
| 1777405843 | 6.67° C | 83% | 1022.1 hPa | 0 mm | - | - | - |
| 1777405606 | 6.11° C | 83% | 1022 hPa | 0 mm | - | - | - |
| 1777405543 | 6.11° C | 83% | 1022.1 hPa | 0 mm | - | - | - |
| 1777405243 | 6.11° C | 85% | 1022.1 hPa | 0 mm | - | - | - |
* Rain latest hour (hover to see other rain measurements)
** Current wind speed in m/s (hover to see current wind gust speed)